Regional Weather Roundup
Issued by NWS Sterling, VA

Home | Current Version | Previous Version | Text Only | Print | Product List | Glossary On
Versions: 1 2 3 4 5 6 7 8 9 10 11 12 13 14 15 16 17 18 19 20 21 22 23 24 25 26 27 28 29 30 31 32 33 34 35 36 37 38 39 40 41 42 43 44 45 46 47 48 49 50
000
ASUS41 KLWX 220911
RWRLWX

REGIONAL WEATHER ROUNDUP
NATIONAL WEATHER SERVICE BALTIMORE MD/WASHINGTON DC
400 AM EST WED NOV 22 2017

Note: "FAIR" indicates few or no clouds below 12,000 feet
with no significant weather and/or obstructions to visibility.
 TC=TEMPERATURE CELSIUS

 * =Non NWS site. Station does not report precipitation (e.g. rain,
    snow, etc.), thunder, or fog.

DCZ001-MDZ009-015-VAZ040>042-051-053>054-221000-
WASHINGTON METRO

CITY           SKY/WX    TMP DP  RH WIND       PRES   REMARKS
WASHINGTON NAT LGT RAIN  53  48  83 S10       29.92F
DULLES         CLOUDY    52  46  80 SW7       29.92S
ANDREWS AFB    RAIN      53  48  82 SW7       29.91F
FT BELVOIR     LGT RAIN  47  44  91 CALM      29.91F
QUANTICO       LGT RAIN  51  50  96 S8        29.92F
COLLEGE PARK*  CLOUDY    51  45  78 CALM      29.91F
LEESBURG*      CLOUDY    50  43  76 CALM      29.94R
MANASSAS*      LGT RAIN  52  45  77 CALM      29.93S
GAITHERSBURG*  CLOUDY    52  45  77 SW5       29.93S

$$

MDZ006>007-011-014-221000-
BALTIMORE METRO

CITY           SKY/WX    TMP DP  RH WIND       PRES   REMARKS
BWI AIRPORT    CLOUDY    52  46  80 SW3       29.91F
MD SCIENCE CTR   N/A     53  46  77 MISG      29.92
MARTIN STATE   CLOUDY    50  48  93 CALM      29.93F
ANNAPOLIS      CLOUDY    54  50  86 S3        29.91F
FORT MEADE*    CLOUDY    45  41  87 CALM      29.94F

$$

MDZ012-015-019>023-221000-
MARYLAND EASTERN SHORE

CITY           SKY/WX    TMP DP  RH WIND       PRES   REMARKS
OCEAN CITY     CLOUDY    58  57  97 SW6       29.94F
SALISBURY      LGT RAIN  56  56 100 CALM      29.93F FOG
CAMBRIDGE*     CLOUDY    55  55 100 S7        29.93F
EASTON*        CLOUDY    53  51  94 CALM      29.97F FOG

$$

MDZ017>025-221000-
SOUTHERN MARYLAND

CITY           SKY/WX    TMP DP  RH WIND       PRES   REMARKS
PATUXENT RIVER MOCLDY    53  52  96 CALM      29.91F
ST INIGOES     MOCLDY    52  51  97 CALM      29.91F
LEONARDTOWN*   CLOUDY    52  50  93 CALM      29.94F

$$

MDZ003>005-221000-
NORTH CENTRAL MARYLAND

CITY           SKY/WX    TMP DP  RH WIND       PRES   REMARKS
FREDERICK*     CLOUDY    46  39  76 SE3       29.95S
HAGERSTOWN APT CLOUDY    46  40  79 CALM      29.91S
WESTMINSTER*   CLOUDY    52  46  82 SW5       29.92R

$$

MDZ501>502-221000-
WESTERN MARYLAND

CITY           SKY/WX    TMP DP  RH WIND       PRES   REMARKS
OAKLAND*       MOCLDY    39  28  65 W8        29.90F
CUMBERLAND*    MOCLDY    37  34  87 NW3       29.98F

$$

VAZ025>031-221000-
SHENANDOAH VALLEY

CITY           SKY/WX    TMP DP  RH WIND       PRES   REMARKS
WINCHESTER*    CLOUDY    46  41  81 SW5       29.92F
FRONT ROYAL*   MOCLDY    46  41  81 CALM      29.92R
LURAY*         CLOUDY    50  45  81 W5        29.92S
NEW MARKET*    CLOUDY    45  41  87 CALM      29.93S
STAUNTON*      CLOUDY    42  40  93 CALM      29.94F
WAYNESBORO*    CLOUDY    50  46  84 W7        29.93F

$$

WVZ021-048>050-054>055-221000-
EASTERN WEST VIRGINIA PANHANDLE

CITY           SKY/WX    TMP DP  RH WIND       PRES   REMARKS
MARTINSBURG    MOCLDY    44  40  85 CALM      29.91S
PETERSBURG*    CLOUDY    44  37  77 NW5       29.95S

$$

VAZ036>039-050-221000-
CENTRAL FOOTHILLS

CITY           SKY/WX    TMP DP  RH WIND       PRES   REMARKS
CHARLOTTESVILL PTCLDY    50  42  74 S5        29.91F
CULPEPER*      CLOUDY    52  43  72 CALM      29.93F
ORANGE*        CLOUDY    46  45  93 CALM      29.93S
GORDONSVILLE*  CLOUDY    46  46  99 CALM      29.92F
WARRENTON*     NOT AVBL

$$

VAZ055>057-221000-
NORTH AND CENTRAL PIEDMONT

CITY           SKY/WX    TMP DP  RH WIND       PRES   REMARKS
FREDERICKSBRG* LGT RAIN  50  50 100 CALM      29.92F
STAFFORD*      LGT RAIN  47  47 100 CALM      29.96F

$$

NCZ024-NYZ072-PAZ021-071-VAZ022-071-221000-
OTHER REGIONAL OBSERVATIONS

CITY           SKY/WX    TMP DP  RH WIND       PRES   REMARKS
NEW YORK CITY  CLOUDY    55  46  71 W3        29.97F
PHILADELPHIA   CLOUDY    53  47  79 S6        29.93F
PITTSBURGH     LGT RAIN  37  36  96 NW12      30.01R
ROANOKE        PTCLDY    48  45  89 W7        29.98S
RICHMOND       LGT RAIN  51  49  92 N3        29.93F
RALEIGH        CLOUDY    52  51  97 CALM      29.96S

$$

ANZ530>537-221000-
MARINE OBSERVATIONS

STATION/POSITION TIME  TEMP    WIND        PRES
                       AIR SEA DIR/SP/G
                 (UTC) (F)     (DEG/KT/KT) (MB)
THOMAS PT LIGHT  0900   54 53  180/  9/ 11   N/A
BALT KEY BRIDGE  0848   56     220/  4/  6 1012.8F
COVE POINT       0848   56      CALM  /  2 1013.8F
LEWISETTA        0848   57 51  190/  5/  6 1012.7F
SOLOMONS ISLAND  0848   54 54   10/  2/  2 1012.7F
PINEY POINT      0842          180/  2/  3   N/A

$$




USA.gov is the U.S. government's official web portal to all federal, state and local government web resources and services.